Location: Cheyres
(46.8153°N, 6.7877°E)
Time: 01:19:31
(UTC+00:00)

Cosmos 44 - Pass Details

Date: 11 May 2021
Orbit: 571 x 791 km, 65.1° (Epoch: 23 June)

Event Time Altitude Azimuth Distance (km) Brightness Sun altitude
Rises 21:42:20 0° 324° (NW) 3,296 8.3 -20.7°
Reaches altitude 10° 21:44:49 10° 327° (NNW) 2,360 7.2 -20.9°
Maximum altitude 21:50:15 69° 50° (NE) 831 3.6 -21.3°
Enters shadow 21:51:58 43° 119° (ESE) 1,079 3.9 -21.5°
